Location: Moscow
(55.7500°N, 37.5830°E)
Time: 05:39:37
(UTC+03:00)

Envisat - Pass Details

Date: 31 October 2021
Orbit: 764 x 766 km, 98.2° (Epoch: 28 November)

Event Time Altitude Azimuth Distance (km) Brightness Sun altitude
Rises 06:13:27 0° 14° (NNE) 3,247 6.3 -11.6°
Reaches altitude 10° 06:15:46 10° 12° (NNE) 2,316 5.5 -11.3°
Maximum altitude 06:20:51 71° 290° (WNW) 815 2.9 -10.6°
Drops below altitude 10° 06:25:53 10° 208° (SSW) 2,299 5.3 -9.9°
Sets 06:28:11 0° 206° (SSW) 3,221 6.1 -9.6°
